Zurück zum Katalog

STARLINK-37934

AktivKommunikationSSO
NORAD 69567·PAYLOAD·🇺🇸 United States

Gestartet Jun 15, 2026 von Vandenberg Space Force Base

Loading…

Nächste Überflüge (nächste 24 Stunden)

TLE

AktuellSource: CelesTrak SupGP

Epoche: Sep 15, 2026, 02:59 UTC

1 69567C 26135X   26258.12479167 -.00030219  00000+0 -93782-3 0  2586
2 69567  97.2839 285.9478 0001336 107.3700 132.6289 15.33463341    12

Verfolge STARLINK-37934 in Echtzeit mit AllMySat

Download on the App Store